Time,TemperatureF,DewpointF,PressureIn,WindDirection,WindDirectionDegrees,WindSpeedMPH,WindSpeedGustMPH,Humidity,HourlyPrecipIn,Conditions,Clouds,dailyrainin,SolarRadiationWatts/m^2,SoftwareType,DateUTC
2013-05-01 00:01:00,67.5,40.1,29.76,WNW,286,4.0,8.0,37,0.00,,,0.00,0.0,WUHU216DAVISVP2,2013-05-01 07:01:00,
2013-05-01 00:06:00,67.2,39.9,29.77,WNW,284,6.0,8.0,37,0.00,,,0.00,0.0,WUHU216DAVISVP2,2013-05-01 07:06:00,
2013-05-01 00:11:00,66.9,39.6,29.77,WNW,289,1.0,8.0,37,0.00,,,0.00,0.0,WUHU216DAVISVP2,2013-05-01 07:11:00,
2013-05-01 00:16:00,66.8,38.8,29.77,WNW,294,3.0,8.0,36,0.00,,,0.00,0.0,WUHU216DAVISVP2,2013-05-01 07:16:00,
2013-05-01 00:21:00,66.7,38.0,29.77,WNW,283,4.0,8.0,35,0.00,,,0.00,0.0,WUHU216DAVISVP2,2013-05-01 07:21:00,
2013-05-01 00:26:00,66.7,38.2,29.77,West,280,6.0,8.0,35,0.00,,,0.00,0.0,WUHU216DAVISVP2,2013-05-01 07:26:00,
2013-05-01 00:31:00,66.6,38.1,29.77,West,277,4.0,8.0,35,0.00,,,0.00,0.0,WUHU216DAVISVP2,2013-05-01 07:31:00,
2013-05-01 00:36:00,66.4,37.7,29.77,WNW,289,4.0,8.0,35,0.00,,,0.00,0.0,WUHU216DAVISVP2,2013-05-01 07:36:00,
2013-05-01 00:41:00,66.2,37.5,29.77,WSW,257,3.0,7.0,35,0.00,,,0.00,0.0,WUHU216DAVISVP2,2013-05-01 07:41:00,
2013-05-01 00:46:00,65.8,37.9,29.77,West,271,0.0,7.0,36,0.00,,,0.00,0.0,WUHU216DAVISVP2,2013-05-01 07:46:00,
2013-05-01 00:51:00,65.5,38.4,29.78,West,263,3.0,7.0,37,0.00,,,0.00,0.0,WUHU216DAVISVP2,2013-05-01 07:51:00,
2013-05-01 00:56:00,65.3,38.2,29.78,West,261,2.0,6.0,37,0.00,,,0.00,0.0,WUHU216DAVISVP2,2013-05-01 07:56:00,
2013-05-01 01:01:00,65.1,38.0,29.78,West,277,2.0,4.0,37,0.00,,,0.00,0.0,WUHU216DAVISVP2,2013-05-01 08:01:00,
2013-05-01 01:06:00,64.8,37.7,29.78,WNW,284,1.0,4.0,37,0.00,,,0.00,0.0,WUHU216DAVISVP2,2013-05-01 08:06:00,
2013-05-01 01:11:00,64.6,37.7,29.78,West,263,2.0,4.0,37,0.00,,,0.00,0.0,WUHU216DAVISVP2,2013-05-01 08:11:00,
2013-05-01 01:16:00,64.5,37.6,29.78,West,263,4.0,4.0,37,0.00,,,0.00,0.0,WUHU216DAVISVP2,2013-05-01 08:16:00,
2013-05-01 01:21:00,64.3,37.5,29.78,West,276,1.0,5.0,37,0.00,,,0.00,0.0,WUHU216DAVISVP2,2013-05-01 08:21:00,
2013-05-01 01:26:00,64.2,37.4,29.78,WNW,286,1.0,6.0,37,0.00,,,0.00,0.0,WUHU216DAVISVP2,2013-05-01 08:26:00,
2013-05-01 01:31:00,64.0,37.9,29.78,WNW,286,2.0,6.0,38,0.00,,,0.00,0.0,WUHU216DAVISVP2,2013-05-01 08:31:00,
2013-05-01 01:36:00,63.7,37.6,29.78,WNW,284,1.0,6.0,38,0.00,,,0.00,0.0,WUHU216DAVISVP2,2013-05-01 08:36:00,
2013-05-01 01:41:00,63.5,37.9,29.78,WNW,284,0.0,6.0,39,0.00,,,0.00,0.0,WUHU216DAVISVP2,2013-05-01 08:41:00,
2013-05-01 01:46:00,63.2,37.7,29.78,WNW,284,1.0,5.0,39,0.00,,,0.00,0.0,WUHU216DAVISVP2,2013-05-01 08:46:00,
2013-05-01 01:51:00,63.1,37.6,29.78,WNW,284,0.0,5.0,39,0.00,,,0.00,0.0,WUHU216DAVISVP2,2013-05-01 08:51:00,
2013-05-01 01:56:00,63.0,37.6,29.78,WNW,284,1.0,3.0,39,0.00,,,0.00,0.0,WUHU216DAVISVP2,2013-05-01 08:56:00,
2013-05-01 02:01:00,62.9,37.4,29.79,WNW,284,0.0,3.0,39,0.00,,,0.00,0.0,WUHU216DAVISVP2,2013-05-01 09:01:00,
2013-05-01 02:06:00,62.7,37.2,29.79,WNW,284,1.0,2.0,39,0.00,,,0.00,0.0,WUHU216DAVISVP2,2013-05-01 09:06:00,
2013-05-01 02:11:00,62.6,37.1,29.79,WNW,284,0.0,2.0,39,0.00,,,0.00,0.0,WUHU216DAVISVP2,2013-05-01 09:11:00,
2013-05-01 02:16:00,62.5,37.0,29.79,WNW,284,0.0,2.0,39,0.00,,,0.00,0.0,WUHU216DAVISVP2,2013-05-01 09:16:00,
2013-05-01 02:21:00,62.5,37.0,29.79,WNW,284,1.0,2.0,39,0.00,,,0.00,0.0,WUHU216DAVISVP2,2013-05-01 09:21:00,
2013-05-01 02:26:00,62.5,37.0,29.79,WNW,284,1.0,2.0,39,0.00,,,0.00,0.0,WUHU216DAVISVP2,2013-05-01 09:26:00,
2013-05-01 02:31:00,62.4,37.6,29.79,WNW,284,1.0,2.0,40,0.00,,,0.00,0.0,WUHU216DAVISVP2,2013-05-01 09:31:00,
2013-05-01 02:36:00,62.2,37.4,29.80,WNW,284,2.0,2.0,40,0.00,,,0.00,0.0,WUHU216DAVISVP2,2013-05-01 09:36:00,
2013-05-01 02:41:00,62.2,36.8,29.80,WNW,284,0.0,2.0,39,0.00,,,0.00,0.0,WUHU216DAVISVP2,2013-05-01 09:41:00,
2013-05-01 02:46:00,62.0,36.6,29.80,WNW,284,0.0,2.0,39,0.00,,,0.00,0.0,WUHU216DAVISVP2,2013-05-01 09:46:00,
2013-05-01 02:51:00,61.9,36.5,29.80,WNW,284,0.0,2.0,39,0.00,,,0.00,0.0,WUHU216DAVISVP2,2013-05-01 09:51:00,
2013-05-01 02:56:00,61.8,36.4,29.80,WNW,284,2.0,2.0,39,0.00,,,0.00,0.0,WUHU216DAVISVP2,2013-05-01 09:56:00,
2013-05-01 03:01:00,61.7,36.5,29.80,WNW,284,0.0,2.0,39,0.00,,,0.00,0.0,WUHU216DAVISVP2,2013-05-01 10:01:00,
2013-05-01 03:06:00,61.5,36.3,29.80,WNW,284,0.0,2.0,39,0.00,,,0.00,0.0,WUHU216DAVISVP2,2013-05-01 10:06:00,
2013-05-01 03:11:00,61.3,36.1,29.80,WNW,284,0.0,2.0,39,0.00,,,0.00,0.0,WUHU216DAVISVP2,2013-05-01 10:11:00,
2013-05-01 03:16:00,61.2,36.7,29.80,WNW,284,0.0,1.0,40,0.00,,,0.00,0.0,WUHU216DAVISVP2,2013-05-01 10:16:00,
2013-05-01 03:21:00,60.9,37.6,29.80,WNW,284,0.0,0.0,42,0.00,,,0.00,0.0,WUHU216DAVISVP2,2013-05-01 10:21:00,
2013-05-01 03:26:00,60.4,38.9,29.80,WNW,284,0.0,0.0,45,0.00,,,0.00,0.0,WUHU216DAVISVP2,2013-05-01 10:26:00,
2013-05-01 03:31:00,59.9,38.5,29.80,WNW,284,0.0,0.0,45,0.00,,,0.00,0.0,WUHU216DAVISVP2,2013-05-01 10:31:00,
2013-05-01 03:36:00,59.5,39.2,29.81,WNW,284,0.0,0.0,47,0.00,,,0.00,0.0,WUHU216DAVISVP2,2013-05-01 10:36:00,
2013-05-01 03:41:00,59.3,38.5,29.81,WNW,284,0.0,0.0,46,0.00,,,0.00,0.0,WUHU216DAVISVP2,2013-05-01 10:41:00,
2013-05-01 03:46:00,59.2,38.4,29.81,WNW,284,0.0,0.0,46,0.00,,,0.00,0.0,WUHU216DAVISVP2,2013-05-01 10:46:00,
2013-05-01 03:51:00,59.3,37.9,29.81,WNW,284,0.0,0.0,45,0.00,,,0.00,0.0,WUHU216DAVISVP2,2013-05-01 10:51:00,
2013-05-01 03:56:00,59.3,38.5,29.81,WNW,284,0.0,0.0,46,0.00,,,0.00,0.0,WUHU216DAVISVP2,2013-05-01 10:56:00,
2013-05-01 04:01:00,59.2,38.4,29.81,WNW,284,0.0,0.0,46,0.00,,,0.00,0.0,WUHU216DAVISVP2,2013-05-01 11:01:00,
2013-05-01 04:06:00,59.0,38.7,29.82,WNW,284,0.0,0.0,47,0.00,,,0.00,0.0,WUHU216DAVISVP2,2013-05-01 11:06:00,
2013-05-01 04:11:00,58.9,38.7,29.82,WNW,284,0.0,0.0,47,0.00,,,0.00,0.0,WUHU216DAVISVP2,2013-05-01 11:11:00,
2013-05-01 04:16:00,58.7,39.0,29.82,WNW,284,0.0,0.0,48,0.00,,,0.00,0.0,WUHU216DAVISVP2,2013-05-01 11:16:00,
2013-05-01 04:21:00,58.6,38.9,29.82,WNW,284,0.0,0.0,48,0.00,,,0.00,0.0,WUHU216DAVISVP2,2013-05-01 11:21:00,
2013-05-01 04:26:00,58.4,38.2,29.82,WNW,284,0.0,0.0,47,0.00,,,0.00,0.0,WUHU216DAVISVP2,2013-05-01 11:26:00,
2013-05-01 04:31:00,58.3,38.7,29.82,WNW,284,0.0,0.0,48,0.00,,,0.00,0.0,WUHU216DAVISVP2,2013-05-01 11:31:00,
2013-05-01 04:36:00,58.2,38.6,29.83,WNW,284,0.0,0.0,48,0.00,,,0.00,0.0,WUHU216DAVISVP2,2013-05-01 11:36:00,
2013-05-01 04:41:00,58.2,38.6,29.83,WNW,284,0.0,0.0,48,0.00,,,0.00,0.0,WUHU216DAVISVP2,2013-05-01 11:41:00,
2013-05-01 04:46:00,58.1,37.9,29.83,WNW,284,0.0,0.0,47,0.00,,,0.00,0.0,WUHU216DAVISVP2,2013-05-01 11:46:00,
2013-05-01 04:51:00,58.1,38.5,29.83,WNW,284,0.0,0.0,48,0.00,,,0.00,0.0,WUHU216DAVISVP2,2013-05-01 11:51:00,
2013-05-01 04:56:00,58.0,38.4,29.83,WNW,284,0.0,0.0,48,0.00,,,0.00,0.0,WUHU216DAVISVP2,2013-05-01 11:56:00,
2013-05-01 05:01:00,58.0,38.4,29.83,WNW,284,0.0,0.0,48,0.00,,,0.00,0.0,WUHU216DAVISVP2,2013-05-01 12:01:00,
2013-05-01 05:05:00,57.9,38.8,29.83,WNW,284,0.0,0.0,49,0.00,,,0.00,0.0,WUHU216DAVISVP2,2013-05-01 12:05:00,
2013-05-01 05:10:00,57.8,38.2,29.83,WNW,284,0.0,0.0,48,0.00,,,0.00,0.0,WUHU216DAVISVP2,2013-05-01 12:10:00,
2013-05-01 05:15:00,57.7,38.6,29.83,WNW,284,0.0,0.0,49,0.00,,,0.00,0.0,WUHU216DAVISVP2,2013-05-01 12:15:00,
2013-05-01 05:20:00,57.7,38.1,29.84,WNW,284,0.0,1.0,48,0.00,,,0.00,0.0,WUHU216DAVISVP2,2013-05-01 12:20:00,
2013-05-01 05:26:00,57.7,40.2,29.84,WNW,284,0.0,1.0,52,0.00,,,0.00,0.0,WUHU216DAVISVP2,2013-05-01 12:26:00,
2013-05-01 05:31:00,57.4,40.9,29.84,WNW,284,0.0,1.0,54,0.00,,,0.00,0.0,WUHU216DAVISVP2,2013-05-01 12:31:00,
2013-05-01 05:36:00,56.9,40.5,29.85,WNW,284,0.0,1.0,54,0.00,,,0.00,0.0,WUHU216DAVISVP2,2013-05-01 12:36:00,
2013-05-01 05:41:00,56.6,39.7,29.85,WNW,284,0.0,0.0,53,0.00,,,0.00,0.0,WUHU216DAVISVP2,2013-05-01 12:41:00,
2013-05-01 05:46:00,56.2,40.3,29.85,WNW,284,0.0,0.0,55,0.00,,,0.00,0.0,WUHU216DAVISVP2,2013-05-01 12:46:00,
2013-05-01 05:51:00,55.7,40.3,29.85,WNW,284,1.0,2.0,56,0.00,,,0.00,0.0,WUHU216DAVISVP2,2013-05-01 12:51:00,
2013-05-01 05:55:00,55.5,40.6,29.86,WNW,284,0.0,3.0,57,0.00,,,0.00,0.0,WUHU216DAVISVP2,2013-05-01 12:55:00,
2013-05-01 06:00:00,55.4,41.3,29.86,WNW,284,0.0,3.0,59,0.00,,,0.00,0.0,WUHU216DAVISVP2,2013-05-01 13:00:00,
2013-05-01 06:05:00,55.4,41.7,29.86,WNW,284,0.0,3.0,60,0.00,,,0.00,0.0,WUHU216DAVISVP2,2013-05-01 13:05:00,
2013-05-01 06:10:00,55.5,41.8,29.86,WNW,284,0.0,3.0,60,0.00,,,0.00,5.0,WUHU216DAVISVP2,2013-05-01 13:10:00,
2013-05-01 06:15:00,55.5,41.0,29.86,West,273,0.0,2.0,58,0.00,,,0.00,9.0,WUHU216DAVISVP2,2013-05-01 13:15:00,
2013-05-01 06:20:00,55.6,40.7,29.87,SW,215,0.0,2.0,57,0.00,,,0.00,14.0,WUHU216DAVISVP2,2013-05-01 13:20:00,
2013-05-01 06:25:00,55.9,41.0,29.87,SW,236,0.0,2.0,57,0.00,,,0.00,21.0,WUHU216DAVISVP2,2013-05-01 13:25:00,
2013-05-01 06:30:00,56.1,42.1,29.88,SW,236,0.0,2.0,59,0.00,,,0.00,30.0,WUHU216DAVISVP2,2013-05-01 13:30:00,
2013-05-01 06:35:00,55.9,42.3,29.88,SW,236,0.0,1.0,60,0.00,,,0.00,39.0,WUHU216DAVISVP2,2013-05-01 13:35:00,
2013-05-01 06:40:00,55.9,42.3,29.88,SW,236,0.0,1.0,60,0.00,,,0.00,49.0,WUHU216DAVISVP2,2013-05-01 13:40:00,
2013-05-01 06:45:00,56.1,43.0,29.88,SW,236,0.0,1.0,61,0.00,,,0.00,62.0,WUHU216DAVISVP2,2013-05-01 13:45:00,
2013-05-01 06:50:00,56.4,43.7,29.88,SW,236,0.0,0.0,62,0.00,,,0.00,76.0,WUHU216DAVISVP2,2013-05-01 13:50:00,
2013-05-01 06:55:00,56.7,43.9,29.88,SW,236,0.0,1.0,62,0.00,,,0.00,90.0,WUHU216DAVISVP2,2013-05-01 13:55:00,
2013-05-01 07:00:00,57.2,44.4,29.89,SW,236,1.0,1.0,62,0.00,,,0.00,105.0,WUHU216DAVISVP2,2013-05-01 14:00:00,
2013-05-01 07:05:00,57.9,44.7,29.89,SE,146,2.0,3.0,61,0.00,,,0.00,123.0,WUHU216DAVISVP2,2013-05-01 14:05:00,
2013-05-01 07:10:00,58.6,43.5,29.89,SE,144,2.0,3.0,57,0.00,,,0.00,139.0,WUHU216DAVISVP2,2013-05-01 14:10:00,
2013-05-01 07:15:00,59.0,43.4,29.89,SSE,147,0.0,4.0,56,0.00,,,0.00,153.0,WUHU216DAVISVP2,2013-05-01 14:15:00,
2013-05-01 07:20:00,59.4,43.3,29.90,SSE,152,0.0,4.0,55,0.00,,,0.00,169.0,WUHU216DAVISVP2,2013-05-01 14:20:00,
2013-05-01 07:25:00,59.8,42.7,29.90,SSE,155,1.0,4.0,53,0.00,,,0.00,186.0,WUHU216DAVISVP2,2013-05-01 14:25:00,
2013-05-01 07:30:00,60.4,41.7,29.90,SSE,157,1.0,4.0,50,0.00,,,0.00,202.0,WUHU216DAVISVP2,2013-05-01 14:30:00,
2013-05-01 07:35:00,61.0,41.1,29.90,SSE,157,0.0,5.0,48,0.00,,,0.00,218.0,WUHU216DAVISVP2,2013-05-01 14:35:00,
2013-05-01 07:40:00,61.7,41.2,29.90,SSE,157,0.0,5.0,47,0.00,,,0.00,234.0,WUHU216DAVISVP2,2013-05-01 14:40:00,
2013-05-01 07:45:00,62.1,41.6,29.91,SSE,158,3.0,5.0,47,0.00,,,0.00,251.0,WUHU216DAVISVP2,2013-05-01 14:45:00,
2013-05-01 07:50:00,62.6,41.5,29.91,SSE,159,0.0,4.0,46,0.00,,,0.00,265.0,WUHU216DAVISVP2,2013-05-01 14:50:00,
2013-05-01 07:55:00,63.5,40.6,29.91,SSE,158,2.0,4.0,43,0.00,,,0.00,279.0,WUHU216DAVISVP2,2013-05-01 14:55:00,
2013-05-01 08:00:00,63.7,40.8,29.91,SSE,157,1.0,5.0,43,0.00,,,0.00,297.0,WUHU216DAVISVP2,2013-05-01 15:00:00,
2013-05-01 08:05:00,64.7,41.7,29.92,SSE,157,1.0,5.0,43,0.00,,,0.00,313.0,WUHU216DAVISVP2,2013-05-01 15:05:00,
2013-05-01 08:10:00,65.1,40.2,29.92,SSE,157,2.0,5.0,40,0.00,,,0.00,329.0,WUHU216DAVISVP2,2013-05-01 15:10:00,
2013-05-01 08:15:00,64.9,40.0,29.92,SSE,157,2.0,4.0,40,0.00,,,0.00,343.0,WUHU216DAVISVP2,2013-05-01 15:15:00,
2013-05-01 08:20:00,65.0,40.6,29.92,SSE,158,2.0,3.0,41,0.00,,,0.00,359.0,WUHU216DAVISVP2,2013-05-01 15:20:00,
2013-05-01 08:25:00,65.1,40.0,29.93,SSE,166,1.0,4.0,40,0.00,,,0.00,374.0,WUHU216DAVISVP2,2013-05-01 15:25:00,
2013-05-01 08:30:00,65.4,40.3,29.93,SSE,166,2.0,4.0,40,0.00,,,0.00,392.0,WUHU216DAVISVP2,2013-05-01 15:30:00,
2013-05-01 08:35:00,65.8,42.0,29.93,SSE,168,2.0,4.0,42,0.00,,,0.00,408.0,WUHU216DAVISVP2,2013-05-01 15:35:00,
2013-05-01 08:40:00,65.9,40.1,29.93,South,184,2.0,4.0,39,0.00,,,0.00,422.0,WUHU216DAVISVP2,2013-05-01 15:40:00,
2013-05-01 08:45:00,66.2,39.0,29.93,South,186,1.0,4.0,37,0.00,,,0.00,438.0,WUHU216DAVISVP2,2013-05-01 15:45:00,
2013-05-01 08:50:00,66.5,39.2,29.93,South,186,1.0,4.0,37,0.00,,,0.00,450.0,WUHU216DAVISVP2,2013-05-01 15:50:00,
2013-05-01 08:55:00,67.0,39.7,29.93,South,186,0.0,4.0,37,0.00,,,0.00,466.0,WUHU216DAVISVP2,2013-05-01 15:55:00,
2013-05-01 09:00:00,67.5,40.1,29.93,South,184,0.0,4.0,37,0.00,,,0.00,482.0,WUHU216DAVISVP2,2013-05-01 16:00:00,
2013-05-01 09:05:00,68.4,36.4,29.93,SSE,164,0.0,4.0,31,0.00,,,0.00,497.0,WUHU216DAVISVP2,2013-05-01 16:05:00,
2013-05-01 09:10:00,68.8,38.3,29.93,SSE,164,1.0,4.0,33,0.00,,,0.00,510.0,WUHU216DAVISVP2,2013-05-01 16:10:00,
2013-05-01 09:15:00,68.9,39.2,29.94,SSE,164,2.0,4.0,34,0.00,,,0.00,526.0,WUHU216DAVISVP2,2013-05-01 16:15:00,
2013-05-01 09:20:00,69.3,39.5,29.94,SE,136,1.0,5.0,34,0.00,,,0.00,543.0,WUHU216DAVISVP2,2013-05-01 16:20:00,
2013-05-01 09:25:00,69.9,38.5,29.94,SE,146,1.0,5.0,32,0.00,,,0.00,554.0,WUHU216DAVISVP2,2013-05-01 16:25:00,
2013-05-01 09:30:00,70.4,38.9,29.94,ESE,121,5.0,5.0,32,0.00,,,0.00,563.0,WUHU216DAVISVP2,2013-05-01 16:30:00,
2013-05-01 09:35:00,70.7,39.2,29.94,SE,137,0.0,5.0,32,0.00,,,0.00,580.0,WUHU216DAVISVP2,2013-05-01 16:35:00,
2013-05-01 09:40:00,71.1,37.9,29.94,South,171,2.0,5.0,30,0.00,,,0.00,591.0,WUHU216DAVISVP2,2013-05-01 16:40:00,
2013-05-01 09:45:00,70.9,37.7,29.94,South,179,2.0,6.0,30,0.00,,,0.00,605.0,WUHU216DAVISVP2,2013-05-01 16:45:00,
2013-05-01 09:50:00,70.8,37.6,29.94,SSE,167,1.0,6.0,30,0.00,,,0.00,621.0,WUHU216DAVISVP2,2013-05-01 16:50:00,
2013-05-01 09:55:00,71.2,38.2,29.94,South,169,1.0,8.0,30,0.00,,,0.00,635.0,WUHU216DAVISVP2,2013-05-01 16:55:00,
2013-05-01 10:00:00,71.3,38.2,29.95,South,182,6.0,8.0,30,0.00,,,0.00,647.0,WUHU216DAVISVP2,2013-05-01 17:00:00,
2013-05-01 10:05:00,71.3,39.1,29.95,SSW,192,0.0,8.0,31,0.00,,,0.00,654.0,WUHU216DAVISVP2,2013-05-01 17:05:00,
2013-05-01 10:10:00,71.9,38.8,29.95,SSW,192,1.0,8.0,30,0.00,,,0.00,668.0,WUHU216DAVISVP2,2013-05-01 17:10:00,
2013-05-01 10:15:00,72.0,38.9,29.95,SSW,198,2.0,8.0,30,0.00,,,0.00,680.0,WUHU216DAVISVP2,2013-05-01 17:15:00,
2013-05-01 10:20:00,72.6,38.5,29.96,SSW,192,0.0,8.0,29,0.00,,,0.00,691.0,WUHU216DAVISVP2,2013-05-01 17:20:00,
2013-05-01 10:25:00,72.4,39.2,29.96,SW,216,3.0,8.0,30,0.00,,,0.00,703.0,WUHU216DAVISVP2,2013-05-01 17:25:00,
2013-05-01 10:30:00,72.9,39.6,29.96,WSW,240,5.0,8.0,30,0.00,,,0.00,712.0,WUHU216DAVISVP2,2013-05-01 17:30:00,
2013-05-01 10:35:00,72.6,37.6,29.96,WSW,245,6.0,8.0,28,0.00,,,0.00,719.0,WUHU216DAVISVP2,2013-05-01 17:35:00,
2013-05-01 10:40:00,72.8,37.8,29.96,WNW,282,3.0,8.0,28,0.00,,,0.00,733.0,WUHU216DAVISVP2,2013-05-01 17:40:00,
2013-05-01 10:45:00,73.2,38.1,29.96,WSW,242,3.0,8.0,28,0.00,,,0.00,745.0,WUHU216DAVISVP2,2013-05-01 17:45:00,
2013-05-01 10:50:00,73.2,36.2,29.96,SSW,202,2.0,8.0,26,0.00,,,0.00,756.0,WUHU216DAVISVP2,2013-05-01 17:50:00,
2013-05-01 10:55:00,73.4,35.3,29.96,WSW,254,2.0,11.0,25,0.00,,,0.00,763.0,WUHU216DAVISVP2,2013-05-01 17:55:00,
2013-05-01 11:00:00,73.9,35.7,29.96,SW,219,0.0,11.0,25,0.00,,,0.00,770.0,WUHU216DAVISVP2,2013-05-01 18:00:00,
2013-05-01 11:05:00,74.4,35.1,29.97,West,265,4.0,11.0,24,0.00,,,0.00,784.0,WUHU216DAVISVP2,2013-05-01 18:05:00,
2013-05-01 11:10:00,74.6,36.3,29.97,SW,234,3.0,11.0,25,0.00,,,0.00,784.0,WUHU216DAVISVP2,2013-05-01 18:10:00,
2013-05-01 11:15:00,74.8,37.5,29.97,WSW,243,5.0,10.0,26,0.00,,,0.00,798.0,WUHU216DAVISVP2,2013-05-01 18:15:00,
2013-05-01 11:20:00,75.1,36.8,29.97,SW,221,2.0,10.0,25,0.00,,,0.00,812.0,WUHU216DAVISVP2,2013-05-01 18:20:00,
2013-05-01 11:25:00,75.2,37.8,29.97,SW,235,3.0,10.0,26,0.00,,,0.00,816.0,WUHU216DAVISVP2,2013-05-01 18:25:00,
2013-05-01 11:30:00,75.0,36.7,29.97,SW,236,3.0,10.0,25,0.00,,,0.00,821.0,WUHU216DAVISVP2,2013-05-01 18:30:00,
2013-05-01 11:35:00,75.4,36.0,29.97,WSW,250,5.0,10.0,24,0.00,,,0.00,831.0,WUHU216DAVISVP2,2013-05-01 18:35:00,
2013-05-01 11:40:00,75.1,34.7,29.97,SSW,192,0.0,9.0,23,0.00,,,0.00,837.0,WUHU216DAVISVP2,2013-05-01 18:40:00,
2013-05-01 11:45:00,75.8,34.2,29.97,West,260,3.0,10.0,22,0.00,,,0.00,844.0,WUHU216DAVISVP2,2013-05-01 18:45:00,
2013-05-01 11:50:00,76.0,35.4,29.96,WSW,242,5.0,10.0,23,0.00,,,0.00,846.0,WUHU216DAVISVP2,2013-05-01 18:50:00,
2013-05-01 11:55:00,76.2,34.6,29.97,West,267,4.0,11.0,22,0.00,,,0.00,858.0,WUHU216DAVISVP2,2013-05-01 18:55:00,
2013-05-01 12:00:00,76.5,34.8,29.97,West,269,4.0,11.0,22,0.00,,,0.00,860.0,WUHU216DAVISVP2,2013-05-01 19:00:00,
2013-05-01 12:05:00,77.3,34.3,29.97,NW,309,5.0,11.0,21,0.00,,,0.00,863.0,WUHU216DAVISVP2,2013-05-01 19:05:00,
2013-05-01 12:10:00,77.5,32.0,29.97,WSW,251,6.0,11.0,19,0.00,,,0.00,870.0,WUHU216DAVISVP2,2013-05-01 19:10:00,
2013-05-01 12:15:00,77.7,34.6,29.96,West,269,6.0,9.0,21,0.00,,,0.00,868.0,WUHU216DAVISVP2,2013-05-01 19:15:00,
2013-05-01 12:20:00,77.8,34.7,29.96,West,266,9.0,12.0,21,0.00,,,0.00,872.0,WUHU216DAVISVP2,2013-05-01 19:20:00,
2013-05-01 12:25:00,77.7,34.6,29.96,West,273,3.0,12.0,21,0.00,,,0.00,877.0,WUHU216DAVISVP2,2013-05-01 19:25:00,
2013-05-01 12:30:00,77.7,33.4,29.96,SW,233,5.0,12.0,20,0.00,,,0.00,879.0,WUHU216DAVISVP2,2013-05-01 19:30:00,
2013-05-01 12:35:00,78.5,35.3,29.96,SW,221,3.0,12.0,21,0.00,,,0.00,881.0,WUHU216DAVISVP2,2013-05-01 19:35:00,
2013-05-01 12:40:00,78.3,36.3,29.96,WNW,302,6.0,12.0,22,0.00,,,0.00,881.0,WUHU216DAVISVP2,2013-05-01 19:40:00,
2013-05-01 12:45:00,78.4,37.5,29.96,WSW,250,2.0,11.0,23,0.00,,,0.00,879.0,WUHU216DAVISVP2,2013-05-01 19:45:00,
2013-05-01 12:50:00,78.5,38.6,29.96,West,260,4.0,11.0,24,0.00,,,0.00,881.0,WUHU216DAVISVP2,2013-05-01 19:50:00,
2013-05-01 12:55:00,79.1,38.0,29.96,WNW,300,4.0,11.0,23,0.00,,,0.00,884.0,WUHU216DAVISVP2,2013-05-01 19:55:00,
2013-05-01 13:00:00,79.6,37.3,29.96,WSW,254,0.0,11.0,22,0.00,,,0.00,881.0,WUHU216DAVISVP2,2013-05-01 20:00:00,
2013-05-01 13:05:00,79.5,36.1,29.97,WNW,302,5.0,10.0,21,0.00,,,0.00,881.0,WUHU216DAVISVP2,2013-05-01 20:05:00,
2013-05-01 13:10:00,79.3,37.1,29.97,NNW,340,5.0,8.0,22,0.00,,,0.00,877.0,WUHU216DAVISVP2,2013-05-01 20:10:00,
2013-05-01 13:15:00,79.3,38.2,29.97,SW,228,0.0,8.0,23,0.00,,,0.00,881.0,WUHU216DAVISVP2,2013-05-01 20:15:00,
2013-05-01 13:20:00,79.3,35.9,29.97,WNW,294,5.0,9.0,21,0.00,,,0.00,881.0,WUHU216DAVISVP2,2013-05-01 20:20:00,
2013-05-01 13:25:00,79.5,36.1,29.96,WSW,241,0.0,9.0,21,0.00,,,0.00,877.0,WUHU216DAVISVP2,2013-05-01 20:25:00,
2013-05-01 13:30:00,80.4,36.8,29.96,NW,308,7.0,10.0,21,0.00,,,0.00,875.0,WUHU216DAVISVP2,2013-05-01 20:30:00,
2013-05-01 13:35:00,81.0,38.5,29.96,WSW,246,8.0,10.0,22,0.00,,,0.00,874.0,WUHU216DAVISVP2,2013-05-01 20:35:00,
2013-05-01 13:40:00,80.9,36.0,29.96,SW,217,3.0,10.0,20,0.00,,,0.00,868.0,WUHU216DAVISVP2,2013-05-01 20:40:00,
2013-05-01 13:45:00,81.1,37.4,29.96,WNW,294,4.0,10.0,21,0.00,,,0.00,867.0,WUHU216DAVISVP2,2013-05-01 20:45:00,
2013-05-01 13:50:00,81.1,37.4,29.96,WNW,299,8.0,8.0,21,0.00,,,0.00,861.0,WUHU216DAVISVP2,2013-05-01 20:50:00,
2013-05-01 13:55:00,81.2,37.5,29.96,NNW,333,3.0,8.0,21,0.00,,,0.00,856.0,WUHU216DAVISVP2,2013-05-01 20:55:00,
2013-05-01 14:00:00,81.9,36.9,29.96,NW,317,7.0,8.0,20,0.00,,,0.00,851.0,WUHU216DAVISVP2,2013-05-01 21:00:00,
2013-05-01 14:05:00,82.7,37.5,29.96,WNW,301,4.0,8.0,20,0.00,,,0.00,846.0,WUHU216DAVISVP2,2013-05-01 21:05:00,
2013-05-01 14:10:00,82.3,37.2,29.96,NW,306,3.0,8.0,20,0.00,,,0.00,840.0,WUHU216DAVISVP2,2013-05-01 21:10:00,
2013-05-01 14:15:00,83.0,36.5,29.96,West,281,3.0,8.0,19,0.00,,,0.00,835.0,WUHU216DAVISVP2,2013-05-01 21:15:00,
2013-05-01 14:20:00,82.7,36.2,29.96,West,281,2.0,8.0,19,0.00,,,0.00,828.0,WUHU216DAVISVP2,2013-05-01 21:20:00,
2013-05-01 14:25:00,82.9,36.4,29.96,NW,309,2.0,8.0,19,0.00,,,0.00,821.0,WUHU216DAVISVP2,2013-05-01 21:25:00,
2013-05-01 14:30:00,83.2,39.2,29.96,West,263,4.0,9.0,21,0.00,,,0.00,816.0,WUHU216DAVISVP2,2013-05-01 21:30:00,
2013-05-01 14:35:00,83.2,37.9,29.96,West,281,1.0,9.0,20,0.00,,,0.00,807.0,WUHU216DAVISVP2,2013-05-01 21:35:00,
2013-05-01 14:40:00,83.1,40.3,29.96,WNW,286,5.0,9.0,22,0.00,,,0.00,802.0,WUHU216DAVISVP2,2013-05-01 21:40:00,
2013-05-01 14:45:00,82.8,38.8,29.96,North,5,3.0,9.0,21,0.00,,,0.00,791.0,WUHU216DAVISVP2,2013-05-01 21:45:00,
2013-05-01 14:50:00,83.8,40.9,29.96,West,261,3.0,8.0,22,0.00,,,0.00,784.0,WUHU216DAVISVP2,2013-05-01 21:50:00,
2013-05-01 14:55:00,84.1,41.1,29.96,SW,227,3.0,8.0,22,0.00,,,0.00,775.0,WUHU216DAVISVP2,2013-05-01 21:55:00,
2013-05-01 15:00:00,83.8,38.4,29.95,WNW,300,2.0,10.0,20,0.00,,,0.00,765.0,WUHU216DAVISVP2,2013-05-01 22:00:00,
2013-05-01 15:05:00,84.2,38.8,29.96,WNW,290,3.0,10.0,20,0.00,,,0.00,754.0,WUHU216DAVISVP2,2013-05-01 22:05:00,
2013-05-01 15:10:00,84.8,39.3,29.95,NW,305,5.0,10.0,20,0.00,,,0.00,744.0,WUHU216DAVISVP2,2013-05-01 22:10:00,
2013-05-01 15:15:00,84.3,37.5,29.95,NW,311,2.0,11.0,19,0.00,,,0.00,735.0,WUHU216DAVISVP2,2013-05-01 22:15:00,
2013-05-01 15:20:00,84.1,39.9,29.95,NW,309,4.0,11.0,21,0.00,,,0.00,719.0,WUHU216DAVISVP2,2013-05-01 22:20:00,
2013-05-01 15:25:00,84.6,40.4,29.95,WSW,247,6.0,11.0,21,0.00,,,0.00,712.0,WUHU216DAVISVP2,2013-05-01 22:25:00,
2013-05-01 15:30:00,84.4,41.4,29.95,NW,306,5.0,9.0,22,0.00,,,0.00,698.0,WUHU216DAVISVP2,2013-05-01 22:30:00,
2013-05-01 15:35:00,84.6,41.6,29.95,NNW,342,4.0,9.0,22,0.00,,,0.00,687.0,WUHU216DAVISVP2,2013-05-01 22:35:00,
2013-05-01 15:40:00,85.3,42.1,29.95,NW,309,5.0,9.0,22,0.00,,,0.00,677.0,WUHU216DAVISVP2,2013-05-01 22:40:00,
2013-05-01 15:45:00,85.5,41.1,29.95,West,261,6.0,9.0,21,0.00,,,0.00,666.0,WUHU216DAVISVP2,2013-05-01 22:45:00,
2013-05-01 15:50:00,85.0,40.7,29.95,WNW,302,5.0,10.0,21,0.00,,,0.00,656.0,WUHU216DAVISVP2,2013-05-01 22:50:00,
2013-05-01 15:55:00,85.3,40.9,29.95,WNW,284,5.0,10.0,21,0.00,,,0.00,642.0,WUHU216DAVISVP2,2013-05-01 22:55:00,
2013-05-01 16:00:00,85.3,42.1,29.95,WNW,286,5.0,10.0,22,0.00,,,0.00,629.0,WUHU216DAVISVP2,2013-05-01 23:00:00,
2013-05-01 16:05:00,85.5,42.3,29.94,NW,307,4.0,10.0,22,0.00,,,0.00,613.0,WUHU216DAVISVP2,2013-05-01 23:05:00,
2013-05-01 16:10:00,85.6,42.4,29.94,NW,320,6.0,8.0,22,0.00,,,0.00,603.0,WUHU216DAVISVP2,2013-05-01 23:10:00,
2013-05-01 16:15:00,85.6,41.2,29.94,North,350,5.0,9.0,21,0.00,,,0.00,592.0,WUHU216DAVISVP2,2013-05-01 23:15:00,
2013-05-01 16:20:00,86.2,41.7,29.95,WNW,303,4.0,9.0,21,0.00,,,0.00,578.0,WUHU216DAVISVP2,2013-05-01 23:20:00,
2013-05-01 16:25:00,86.0,40.2,29.94,NW,316,6.0,9.0,20,0.00,,,0.00,564.0,WUHU216DAVISVP2,2013-05-01 23:25:00,
2013-05-01 16:30:00,85.9,41.4,29.94,NW,310,5.0,9.0,21,0.00,,,0.00,547.0,WUHU216DAVISVP2,2013-05-01 23:30:00,
2013-05-01 16:35:00,85.8,42.5,29.94,WNW,294,6.0,8.0,22,0.00,,,0.00,531.0,WUHU216DAVISVP2,2013-05-01 23:35:00,
2013-05-01 16:40:00,85.9,42.6,29.94,NNW,348,7.0,9.0,22,0.00,,,0.00,520.0,WUHU216DAVISVP2,2013-05-01 23:40:00,
2013-05-01 16:45:00,86.4,41.8,29.94,North,355,4.0,9.0,21,0.00,,,0.00,503.0,WUHU216DAVISVP2,2013-05-01 23:45:00,
2013-05-01 16:50:00,86.4,41.8,29.94,WNW,289,6.0,9.0,21,0.00,,,0.00,489.0,WUHU216DAVISVP2,2013-05-01 23:50:00,
2013-05-01 16:55:00,86.2,41.7,29.94,WNW,285,6.0,9.0,21,0.00,,,0.00,473.0,WUHU216DAVISVP2,2013-05-01 23:55:00,
2013-05-01 17:00:00,86.5,43.1,29.94,WNW,303,5.0,9.0,22,0.00,,,0.00,455.0,WUHU216DAVISVP2,2013-05-02 00:00:00,
2013-05-01 17:05:00,86.9,41.0,29.94,North,355,2.0,9.0,20,0.00,,,0.00,441.0,WUHU216DAVISVP2,2013-05-02 00:05:00,
2013-05-01 17:10:00,87.3,41.3,29.94,West,278,6.0,8.0,20,0.00,,,0.00,425.0,WUHU216DAVISVP2,2013-05-02 00:10:00,
2013-05-01 17:15:00,86.9,38.3,29.94,WNW,302,3.0,8.0,18,0.00,,,0.00,415.0,WUHU216DAVISVP2,2013-05-02 00:15:00,
2013-05-01 17:20:00,87.0,41.1,29.94,NNW,327,7.0,7.0,20,0.00,,,0.00,399.0,WUHU216DAVISVP2,2013-05-02 00:20:00,
2013-05-01 17:25:00,86.8,39.6,29.94,NNW,346,3.0,8.0,19,0.00,,,0.00,380.0,WUHU216DAVISVP2,2013-05-02 00:25:00,
2013-05-01 17:30:00,87.0,38.4,29.94,WNW,298,6.0,8.0,18,0.00,,,0.00,362.0,WUHU216DAVISVP2,2013-05-02 00:30:00,
2013-05-01 17:35:00,86.8,39.6,29.94,WNW,296,6.0,8.0,19,0.00,,,0.00,345.0,WUHU216DAVISVP2,2013-05-02 00:35:00,
2013-05-01 17:40:00,86.4,37.9,29.94,West,277,4.0,9.0,18,0.00,,,0.00,329.0,WUHU216DAVISVP2,2013-05-02 00:40:00,
2013-05-01 17:45:00,86.6,39.4,29.94,WNW,283,6.0,9.0,19,0.00,,,0.00,313.0,WUHU216DAVISVP2,2013-05-02 00:45:00,
2013-05-01 17:50:00,86.7,33.5,29.94,NW,309,4.0,9.0,15,0.00,,,0.00,299.0,WUHU216DAVISVP2,2013-05-02 00:50:00,
2013-05-01 17:55:00,86.9,35.3,29.94,NW,324,3.0,8.0,16,0.00,,,0.00,281.0,WUHU216DAVISVP2,2013-05-02 00:55:00,
2013-05-01 18:00:00,86.8,36.7,29.94,NW,314,5.0,7.0,17,0.00,,,0.00,265.0,WUHU216DAVISVP2,2013-05-02 01:00:00,
2013-05-01 18:05:00,86.8,38.2,29.94,NW,306,3.0,7.0,18,0.00,,,0.00,248.0,WUHU216DAVISVP2,2013-05-02 01:05:00,
2013-05-01 18:10:00,86.5,39.3,29.94,NW,308,4.0,7.0,19,0.00,,,0.00,230.0,WUHU216DAVISVP2,2013-05-02 01:10:00,
2013-05-01 18:15:00,86.4,40.6,29.94,WNW,296,3.0,8.0,20,0.00,,,0.00,214.0,WUHU216DAVISVP2,2013-05-02 01:15:00,
2013-05-01 18:20:00,86.6,42.0,29.94,NNE,17,0.0,8.0,21,0.00,,,0.00,199.0,WUHU216DAVISVP2,2013-05-02 01:20:00,
2013-05-01 18:25:00,86.9,39.7,29.94,NNW,330,3.0,8.0,19,0.00,,,0.00,181.0,WUHU216DAVISVP2,2013-05-02 01:25:00,
2013-05-01 18:30:00,86.8,40.9,29.94,NW,320,1.0,8.0,20,0.00,,,0.00,162.0,WUHU216DAVISVP2,2013-05-02 01:30:00,
2013-05-01 18:35:00,86.8,42.2,29.94,NNW,346,2.0,6.0,21,0.00,,,0.00,146.0,WUHU216DAVISVP2,2013-05-02 01:35:00,
2013-05-01 18:40:00,86.5,41.9,29.94,WNW,301,3.0,6.0,21,0.00,,,0.00,128.0,WUHU216DAVISVP2,2013-05-02 01:40:00,
2013-05-01 18:45:00,86.2,42.9,29.94,NW,309,3.0,6.0,22,0.00,,,0.00,113.0,WUHU216DAVISVP2,2013-05-02 01:45:00,
2013-05-01 18:50:00,85.7,43.6,29.95,WNW,303,2.0,7.0,23,0.00,,,0.00,97.0,WUHU216DAVISVP2,2013-05-02 01:50:00,
2013-05-01 18:55:00,85.5,43.4,29.94,NNW,334,3.0,7.0,23,0.00,,,0.00,83.0,WUHU216DAVISVP2,2013-05-02 01:55:00,
2013-05-01 19:00:00,85.2,44.3,29.95,NW,313,2.0,7.0,24,0.00,,,0.00,72.0,WUHU216DAVISVP2,2013-05-02 02:00:00,
2013-05-01 19:05:00,85.0,45.2,29.95,WNW,303,2.0,6.0,25,0.00,,,0.00,58.0,WUHU216DAVISVP2,2013-05-02 02:05:00,
2013-05-01 19:10:00,84.6,44.8,29.95,NW,306,3.0,6.0,25,0.00,,,0.00,49.0,WUHU216DAVISVP2,2013-05-02 02:10:00,
2013-05-01 19:15:00,84.2,45.5,29.95,NW,311,3.0,5.0,26,0.00,,,0.00,40.0,WUHU216DAVISVP2,2013-05-02 02:15:00,
2013-05-01 19:20:00,83.8,46.1,29.95,NW,311,1.0,5.0,27,0.00,,,0.00,32.0,WUHU216DAVISVP2,2013-05-02 02:20:00,
2013-05-01 19:26:00,83.3,45.7,29.95,WNW,303,3.0,6.0,27,0.00,,,0.00,25.0,WUHU216DAVISVP2,2013-05-02 02:26:00,
2013-05-01 19:31:00,82.7,45.2,29.95,WNW,295,1.0,6.0,27,0.00,,,0.00,18.0,WUHU216DAVISVP2,2013-05-02 02:31:00,
2013-05-01 19:36:00,82.2,44.8,29.95,NW,308,2.0,6.0,27,0.00,,,0.00,12.0,WUHU216DAVISVP2,2013-05-02 02:36:00,
2013-05-01 19:41:00,81.7,45.3,29.96,NW,308,3.0,6.0,28,0.00,,,0.00,7.0,WUHU216DAVISVP2,2013-05-02 02:41:00,
2013-05-01 19:46:00,81.4,45.0,29.96,WNW,302,2.0,5.0,28,0.00,,,0.00,5.0,WUHU216DAVISVP2,2013-05-02 02:46:00,
2013-05-01 19:51:00,81.0,44.7,29.96,WNW,294,2.0,5.0,28,0.00,,,0.00,0.0,WUHU216DAVISVP2,2013-05-02 02:51:00,
2013-05-01 19:56:00,80.6,44.3,29.96,WNW,294,3.0,5.0,28,0.00,,,0.00,0.0,WUHU216DAVISVP2,2013-05-02 02:56:00,
2013-05-01 20:01:00,80.4,43.3,29.96,WNW,299,4.0,5.0,27,0.00,,,0.00,0.0,WUHU216DAVISVP2,2013-05-02 03:01:00,
2013-05-01 20:06:00,80.3,43.1,29.96,NW,307,3.0,5.0,27,0.00,,,0.00,0.0,WUHU216DAVISVP2,2013-05-02 03:06:00,
2013-05-01 20:11:00,80.2,43.2,29.97,WNW,303,2.0,5.0,27,0.00,,,0.00,0.0,WUHU216DAVISVP2,2013-05-02 03:11:00,
2013-05-01 20:16:00,80.0,42.9,29.97,WNW,300,3.0,5.0,27,0.00,,,0.00,0.0,WUHU216DAVISVP2,2013-05-02 03:16:00,
2013-05-01 20:21:00,79.8,43.7,29.97,WNW,302,3.0,5.0,28,0.00,,,0.00,0.0,WUHU216DAVISVP2,2013-05-02 03:21:00,
2013-05-01 20:26:00,79.4,45.3,29.97,WNW,302,3.0,5.0,30,0.00,,,0.00,0.0,WUHU216DAVISVP2,2013-05-02 03:26:00,
2013-05-01 20:31:00,78.7,46.2,29.97,WNW,302,3.0,5.0,32,0.00,,,0.00,0.0,WUHU216DAVISVP2,2013-05-02 03:31:00,
2013-05-01 20:36:00,78.1,46.5,29.97,West,279,1.0,5.0,33,0.00,,,0.00,0.0,WUHU216DAVISVP2,2013-05-02 03:36:00,
2013-05-01 20:41:00,77.7,46.1,29.97,WNW,282,1.0,4.0,33,0.00,,,0.00,0.0,WUHU216DAVISVP2,2013-05-02 03:41:00,
2013-05-01 20:46:00,77.6,46.2,29.97,WNW,282,0.0,4.0,33,0.00,,,0.00,0.0,WUHU216DAVISVP2,2013-05-02 03:46:00,
2013-05-01 20:51:00,77.3,46.6,29.98,WNW,282,0.0,4.0,34,0.00,,,0.00,0.0,WUHU216DAVISVP2,2013-05-02 03:51:00,
2013-05-01 20:56:00,76.9,47.0,29.98,WNW,282,0.0,3.0,35,0.00,,,0.00,0.0,WUHU216DAVISVP2,2013-05-02 03:56:00,
2013-05-01 21:01:00,76.6,46.7,29.98,WNW,282,1.0,3.0,35,0.00,,,0.00,0.0,WUHU216DAVISVP2,2013-05-02 04:01:00,
2013-05-01 21:06:00,76.3,46.5,29.98,WNW,282,0.0,2.0,35,0.00,,,0.00,0.0,WUHU216DAVISVP2,2013-05-02 04:06:00,
2013-05-01 21:11:00,76.1,47.1,29.98,WNW,282,0.0,2.0,36,0.00,,,0.00,0.0,WUHU216DAVISVP2,2013-05-02 04:11:00,
2013-05-01 21:16:00,75.5,47.4,29.98,WNW,282,0.0,2.0,37,0.00,,,0.00,0.0,WUHU216DAVISVP2,2013-05-02 04:16:00,
2013-05-01 21:21:00,74.8,47.4,29.99,WNW,282,0.0,2.0,38,0.00,,,0.00,0.0,WUHU216DAVISVP2,2013-05-02 04:21:00,
2013-05-01 21:26:00,74.1,48.1,29.99,WNW,282,0.0,1.0,40,0.00,,,0.00,0.0,WUHU216DAVISVP2,2013-05-02 04:26:00,
2013-05-01 21:31:00,73.5,47.0,29.99,WNW,282,0.0,1.0,39,0.00,,,0.00,0.0,WUHU216DAVISVP2,2013-05-02 04:31:00,
2013-05-01 21:36:00,73.5,47.6,29.99,WNW,282,0.0,1.0,40,0.00,,,0.00,0.0,WUHU216DAVISVP2,2013-05-02 04:36:00,
2013-05-01 21:41:00,73.5,46.9,29.99,WNW,282,2.0,3.0,39,0.00,,,0.00,0.0,WUHU216DAVISVP2,2013-05-02 04:41:00,
2013-05-01 21:46:00,73.4,46.8,30.00,WNW,282,1.0,3.0,39,0.00,,,0.00,0.0,WUHU216DAVISVP2,2013-05-02 04:46:00,
2013-05-01 21:51:00,73.4,46.8,30.00,WNW,282,0.0,3.0,39,0.00,,,0.00,0.0,WUHU216DAVISVP2,2013-05-02 04:51:00,
2013-05-01 21:56:00,73.5,46.9,30.00,WNW,282,3.0,4.0,39,0.00,,,0.00,0.0,WUHU216DAVISVP2,2013-05-02 04:56:00,
2013-05-01 22:01:00,73.5,46.9,30.00,WNW,282,0.0,4.0,39,0.00,,,0.00,0.0,WUHU216DAVISVP2,2013-05-02 05:01:00,
2013-05-01 22:06:00,73.3,46.7,30.00,WNW,282,1.0,4.0,39,0.00,,,0.00,0.0,WUHU216DAVISVP2,2013-05-02 05:06:00,
2013-05-01 22:11:00,73.0,47.1,30.00,WNW,282,0.0,4.0,40,0.00,,,0.00,0.0,WUHU216DAVISVP2,2013-05-02 05:11:00,
2013-05-01 22:16:00,72.8,47.6,30.00,WNW,282,0.0,3.0,41,0.00,,,0.00,0.0,WUHU216DAVISVP2,2013-05-02 05:16:00,
2013-05-01 22:21:00,72.5,47.4,30.01,WNW,282,2.0,2.0,41,0.00,,,0.00,0.0,WUHU216DAVISVP2,2013-05-02 05:21:00,
2013-05-01 22:26:00,72.3,47.8,30.01,WNW,282,0.0,2.0,42,0.00,,,0.00,0.0,WUHU216DAVISVP2,2013-05-02 05:26:00,
2013-05-01 22:31:00,72.1,47.7,30.01,WNW,282,1.0,2.0,42,0.00,,,0.00,0.0,WUHU216DAVISVP2,2013-05-02 05:31:00,
2013-05-01 22:36:00,71.9,48.1,30.01,WNW,282,1.0,2.0,43,0.00,,,0.00,0.0,WUHU216DAVISVP2,2013-05-02 05:36:00,
2013-05-01 22:41:00,71.6,48.5,30.01,WNW,282,0.0,2.0,44,0.00,,,0.00,0.0,WUHU216DAVISVP2,2013-05-02 05:41:00,
2013-05-01 22:46:00,71.3,48.2,30.01,WNW,282,0.0,2.0,44,0.00,,,0.00,0.0,WUHU216DAVISVP2,2013-05-02 05:46:00,
2013-05-01 22:51:00,71.0,48.6,30.01,WNW,282,0.0,2.0,45,0.00,,,0.00,0.0,WUHU216DAVISVP2,2013-05-02 05:51:00,
2013-05-01 22:56:00,70.8,48.4,30.02,WNW,282,0.0,1.0,45,0.00,,,0.00,0.0,WUHU216DAVISVP2,2013-05-02 05:56:00,
2013-05-01 23:01:00,70.6,48.2,30.02,WNW,282,0.0,1.0,45,0.00,,,0.00,0.0,WUHU216DAVISVP2,2013-05-02 06:01:00,
2013-05-01 23:06:00,70.4,48.6,30.02,WNW,282,0.0,1.0,46,0.00,,,0.00,0.0,WUHU216DAVISVP2,2013-05-02 06:06:00,
2013-05-01 23:11:00,70.2,48.4,30.02,WNW,282,0.0,1.0,46,0.00,,,0.00,0.0,WUHU216DAVISVP2,2013-05-02 06:11:00,
2013-05-01 23:16:00,69.9,48.8,30.02,WNW,282,0.0,1.0,47,0.00,,,0.00,0.0,WUHU216DAVISVP2,2013-05-02 06:16:00,
2013-05-01 23:21:00,69.1,48.6,30.02,WNW,282,0.0,0.0,48,0.00,,,0.00,0.0,WUHU216DAVISVP2,2013-05-02 06:21:00,
2013-05-01 23:26:00,68.3,48.4,30.02,WNW,282,0.0,0.0,49,0.00,,,0.00,0.0,WUHU216DAVISVP2,2013-05-02 06:26:00,
2013-05-01 23:31:00,67.8,49.1,30.02,WNW,282,0.0,0.0,51,0.00,,,0.00,0.0,WUHU216DAVISVP2,2013-05-02 06:31:00,
2013-05-01 23:36:00,67.2,49.1,30.02,WNW,282,0.0,0.0,52,0.00,,,0.00,0.0,WUHU216DAVISVP2,2013-05-02 06:36:00,
2013-05-01 23:41:00,66.6,49.0,30.02,WNW,282,0.0,0.0,53,0.00,,,0.00,0.0,WUHU216DAVISVP2,2013-05-02 06:41:00,
2013-05-01 23:46:00,66.0,49.5,30.02,WNW,282,0.0,0.0,55,0.00,,,0.00,0.0,WUHU216DAVISVP2,2013-05-02 06:46:00,
2013-05-01 23:51:00,65.7,49.7,30.03,WNW,282,0.0,0.0,56,0.00,,,0.00,0.0,WUHU216DAVISVP2,2013-05-02 06:51:00,
2013-05-01 23:56:00,65.7,49.7,30.03,WNW,282,0.0,0.0,56,0.00,,,0.00,0.0,WUHU216DAVISVP2,2013-05-02 06:56:00,